Retour au catalogue

STARLINK-31164

ActifCommunicationsVLEO
NORAD 58733·PAYLOAD·🇺🇸 United States

Lancé Jan 7, 2024 depuis Cape Canaveral Space Force Station

Loading…

Prochains Passages (prochaines 24 heures)

TLE

FraisSource: CelesTrak SupGP

Époque: Sep 15, 2026, 01:51 UTC

1 58733C 24005F   26258.07756944 -.00014977  00000+0 -54251-3 0  2589
2 58733  42.9993 229.8440 0001001 261.0647  44.7916 15.27582675    11

Suivez STARLINK-31164 en temps réel avec AllMySat

Download on the App Store